Location: Paris
(48.8567°N, 2.3515°E)
Time: 13:13:38
(UTC+01:00)

ISS - Visible Passes

Search period start: 01 December 2020 00:00
Search period end: 11 December 2020 00:00
Orbit: 418 x 420 km, 51.6° (Epoch: 01 December)

Date Brightness Start Highest point End Pass type
(mag) Time Alt. Az. Time Alt. Az. Time Alt. Az.
01 Dec -3.5 19:02:55 10° WNW 19:05:55 58° NNW 19:05:55 58° NNW visible
02 Dec -3.5 18:15:18 10° WNW 18:18:38 54° N 18:20:20 25° ENE visible
02 Dec -1.0 19:52:10 10° WNW 19:53:18 19° WNW 19:53:18 19° WNW visible
03 Dec -3.4 17:27:40 10° WNW 17:30:58 50° N 17:34:16 10° E visible
03 Dec -3.7 19:04:34 10° WNW 19:07:46 77° WSW 19:07:46 77° WSW visible
04 Dec -3.8 18:16:57 10° WNW 18:20:20 77° NNE 18:22:20 22° ESE visible
04 Dec -0.9 19:54:00 10° W 19:55:18 19° W 19:55:18 19° W visible
05 Dec -3.7 17:29:20 10° WNW 17:32:41 62° NNE 17:36:02 10° E visible
05 Dec -2.7 19:06:14 10° WNW 19:09:26 40° SSW 19:09:59 37° S visible
06 Dec -3.2 18:18:33 10° WNW 18:21:53 59° SSW 18:24:52 12° SE visible
06 Dec -0.6 19:56:39 10° WSW 19:57:52 12° SW 19:57:52 12° SW visible
07 Dec -3.7 17:30:54 10° WNW 17:34:16 82° SSW 17:37:38 10° ESE visible
07 Dec -1.1 19:08:15 10° W 19:10:41 19° SW 19:13:00 11° S visible
08 Dec -1.6 18:20:17 10° W 18:23:12 28° SW 18:26:08 10° SSE visible
09 Dec -2.3 17:32:29 10° WNW 17:35:41 40° SSW 17:38:51 10° SE visible
10 Dec -0.4 18:22:50 10° WSW 18:24:19 12° SW 18:25:49 10° SSW visible
